sat.trackr.live / text

‹ back to catalog

STARLINK-31463

NORAD 59296 · 2024-056A

PAYLOAD ACTIVE UNKNOWN

§ Identity

Operator
Country
US
Launch date
2024-03-24
Launch site
AFETR
Launch vehicle
Mass (kg)
RCS (m²)

Purposes: comms

External: N2YO · Heavens-Above · Gunter

§ Orbital elements

Epoch: 2026-05-25T00:27:44.712000Z

Period
94.27 min
Inclination
43.0039°
Eccentricity
0.0001827
Mean motion
15.27578650 rev/d
Perigee alt
481.8 km
Apogee alt
484.3 km
Semi-major
6,861.2 km
B*
1.8260e-4
RAAN
155.6987°
Arg perigee
294.6283°
Mean anomaly
65.4378°
Rev number
12,287

§ Raw data

STARLINK-314631 59296U 24056A   26145.01926750  .00004765  00000+0  18260-3 0  99972 59296  43.0039 155.6987 0001827 294.6283  65.4378 15.27578650122874

JSON: /api/v1/satellites/59296 · /tle

For live sub-satellite position, see the globe view (requires WebGL).

§ Visibility from observer

Set your observer location to see the next 7 days of passes ≥ 10°. The values pass through the URL so the page stays shareable.

No JS? Fill the form by hand. The geolocation button needs JavaScript.